Theta_e
327 327 327 327 326 324 323 323 323 323 323 323 321 318 315 314 314 314 313 313 313 313 311 307 305 309 316 320 321 323 323 323 324 325 325 325 325 325 325 325 324 324
326 326 326 326 325 323 322 322 321 322 323 322 319 316 314 313 313 313 313 312 312 312 309 304 306 314 318 320 321 323 323 322 322 322 322 322 321 321 321 321 321 322
325 325 325 324 323 321 320 320 319 320 321 320 317 315 314 313 312 312 312 311 310 309 306 306 312 318 319 320 322 322 321 321 321 320 320 320 320 319 319 319 319 319
323 323 323 322 321 320 319 319 318 319 320 318 315 313 312 312 311 311 310 309 308 308 308 312 316 319 320 321 321 321 321 320 320 319 319 319 319 318 318 318 318 317
322 322 321 320 320 319 318 318 317 318 317 314 313 312 312 311 310 310 309 309 310 310 312 315 317 319 320 321 321 321 320 320 320 319 319 319 318 317 317 316 316 316
320 320 319 318 317 317 316 315 316 316 314 312 312 312 311 310 309 308 308 310 311 312 314 316 317 319 321 321 321 320 320 320 319 319 319 319 317 316 316 315 315 314
319 318 316 315 314 314 315 315 316 315 313 312 312 311 310 309 308 307 309 311 312 313 315 316 318 319 320 321 320 320 319 319 318 318 318 318 317 315 314 313 314 314
317 316 314 313 314 314 314 314 315 314 313 312 312 311 310 309 308 308 309 310 311 313 315 317 318 319 319 319 318 318 318 317 317 317 317 316 315 314 313 312 312 312
316 315 314 313 314 314 313 313 314 313 313 312 312 311 310 309 310 309 309 309 310 313 316 317 318 318 317 316 316 315 315 316 316 316 316 315 315 314 313 312 310 309
316 315 314 314 314 314 313 312 312 312 312 312 312 311 310 310 310 310 310 308 308 312 316 318 318 317 316 315 315 314 314 315 316 316 316 314 312 311 311 311 310 308
316 316 315 314 313 313 312 311 311 311 311 312 312 312 311 311 311 311 311 308 307 311 315 317 318 317 316 315 314 314 313 313 315 315 314 311 309 308 308 308 310 310
315 315 315 314 313 312 311 311 311 311 311 311 312 312 311 311 311 311 311 308 306 309 313 316 317 317 316 315 314 313 312 312 313 312 310 308 307 305 304 305 310 311
314 314 315 315 313 312 312 312 311 311 311 311 311 312 311 311 311 311 311 308 306 308 311 313 315 316 316 315 313 312 311 310 311 310 309 307 306 304 303 305 309 311
314 313 314 314 314 313 312 312 312 312 312 312 312 312 311 311 311 312 311 309 306 307 309 310 313 315 316 314 313 311 310 310 310 309 308 308 306 305 305 306 308 309
314 314 313 313 313 313 312 312 312 312 313 312 312 312 312 312 312 312 312 310 306 306 308 309 312 315 317 315 313 312 311 310 310 309 308 308 306 305 305 306 307 307
314 314 314 314 314 313 313 313 313 313 313 313 313 313 312 312 312 312 312 311 308 307 307 308 309 312 315 315 314 313 311 311 310 309 308 307 307 306 306 306 306 306
315 315 315 314 314 314 314 313 313 313 313 313 313 313 312 312 312 312 312 312 310 309 308 307 307 308 311 312 314 314 313 312 311 309 308 307 307 307 307 307 307 307
316 315 315 315 315 315 314 314 313 313 313 313 313 313 313 313 313 312 312 312 312 310 310 309 308 307 308 309 311 312 313 313 312 310 308 307 307 307 307 308 308 308
316 316 316 315 315 315 315 315 314 313 313 314 314 313 313 313 313 313 312 313 313 312 311 310 309 309 308 308 308 310 311 312 313 311 309 308 308 308 307 308 309 310
316 316 316 316 316 316 316 316 315 315 315 315 314 313 313 314 314 313 313 313 313 312 312 311 310 309 308 308 308 308 309 310 312 312 310 308 308 309 308 308 309 309
317 316 317 317 317 317 316 317 317 316 315 316 315 314 314 314 313 313 314 313 313 313 312 312 312 311 310 309 308 307 308 308 310 311 311 309 309 309 309 308 308 308
318 317 318 318 318 318 317 317 317 316 315 316 316 315 314 314 314 314 313 313 313 313 313 313 313 312 311 310 309 308 308 307 308 309 309 309 309 309 309 308 307 307
319 318 318 318 317 317 317 317 316 316 315 316 316 315 314 314 315 315 314 313 313 314 314 314 313 313 313 311 310 309 309 308 307 308 308 308 309 309 309 308 306 306
318 317 317 316 316 316 316 316 316 316 316 316 315 315 315 315 315 315 314 314 314 314 314 314 314 314 314 313 311 309 309 308 307 307 308 308 308 309 308 307 306 306
317 316 316 315 316 315 315 315 316 316 315 316 315 315 315 315 315 315 314 314 314 314 314 314 314 314 314 314 313 310 309 308 306 306 308 308 308 308 307 306 306 307
317 316 316 315 315 315 315 315 316 316 316 315 315 315 315 315 315 315 315 314 314 314 314 314 315 314 314 315 314 311 309 307 306 305 306 307 308 307 307 307 307 308
Wind_Speed
13 13 13 13 14 14 13 12 10 10 10 10 11 12 12 13 14 15 16 17 19 20 20 17 12 9 8 7 8 10 11 12 14 14 15 15 16 16 17 17 17 17
13 13 13 14 14 13 12 11 10 10 10 11 11 11 12 13 14 16 17 18 19 20 19 15 10 7 7 7 9 12 12 13 14 14 15 16 16 16 16 16 16 16
13 13 13 13 13 13 12 11 11 10 10 10 10 11 13 14 16 17 18 19 20 20 17 13 9 7 8 9 11 13 14 14 15 14 15 16 16 16 16 15 15 15
13 13 13 13 13 12 12 11 12 11 10 11 12 13 14 16 18 19 20 19 18 18 15 12 9 8 10 11 13 14 14 15 15 14 14 16 16 16 15 15 15 16
13 13 13 13 12 12 12 12 12 10 11 13 14 15 16 18 20 20 20 18 17 16 14 12 10 10 12 13 14 14 14 15 14 14 15 16 16 16 16 16 16 17
14 13 13 13 13 13 13 13 11 11 14 15 16 17 18 19 20 20 18 16 16 16 14 13 12 12 13 14 14 15 15 15 15 15 15 15 15 16 16 17 17 18
14 14 15 15 15 15 15 14 12 12 15 15 16 17 18 19 21 20 17 15 17 17 14 13 13 13 14 14 15 15 15 15 15 14 14 14 14 15 16 17 17 17
14 15 16 17 17 17 17 16 13 12 12 13 15 16 17 19 21 21 17 14 16 17 15 13 13 15 15 15 15 15 15 14 14 13 13 14 14 15 16 16 16 16
14 15 16 17 17 16 16 15 13 11 10 11 13 14 16 18 21 22 20 15 15 17 15 13 14 15 16 16 16 15 14 13 12 12 12 13 13 14 14 14 15 16
13 13 15 16 16 15 15 14 13 11 9 10 11 13 15 17 19 21 21 18 15 17 16 13 13 14 15 15 15 14 13 11 10 10 11 12 13 13 13 12 13 15
12 12 13 14 15 15 16 14 13 12 11 10 11 12 14 16 17 19 21 21 16 16 16 14 13 13 14 14 14 13 13 12 11 10 12 14 15 15 14 12 12 14
12 11 11 12 14 15 15 13 12 12 13 12 11 12 13 14 16 17 20 21 18 15 16 14 12 11 12 13 13 13 14 14 13 13 14 16 17 17 16 13 12 14
12 12 10 10 11 12 12 11 10 10 12 12 12 12 13 14 15 17 19 21 19 16 15 14 12 10 10 11 13 14 15 15 14 14 16 17 18 18 17 15 13 14
11 11 9 8 8 8 9 8 8 8 9 11 12 12 13 13 14 16 18 20 20 17 15 14 12 10 9 9 10 12 13 13 14 14 15 16 17 18 18 18 16 16
9 9 8 7 7 7 7 7 7 8 8 8 10 12 12 12 13 14 16 19 21 19 17 14 13 12 9 7 8 9 11 11 12 14 15 15 16 17 17 19 19 19
8 7 7 6 6 7 7 7 7 8 9 8 8 9 10 11 11 12 14 17 19 20 19 17 15 13 10 8 6 7 9 10 10 12 14 14 15 15 16 17 19 20
7 6 5 5 5 6 7 7 7 8 9 9 8 8 9 10 10 11 12 13 15 17 19 19 17 15 13 10 8 6 7 8 9 10 13 13 14 15 16 17 17 18
6 5 5 4 4 5 5 5 5 6 7 8 7 7 8 9 9 10 10 11 12 13 15 17 17 16 15 13 11 8 7 7 7 8 10 12 13 14 16 17 17 17
6 5 4 3 2 2 2 3 3 4 5 7 7 6 7 8 8 9 9 9 10 10 11 13 14 15 15 14 13 11 9 8 6 6 8 10 12 13 15 17 19 18
6 5 3 2 2 2 1 1 1 2 4 6 6 6 7 8 8 8 9 9 8 8 8 10 11 12 13 13 13 12 11 9 7 5 6 8 11 12 13 14 17 17
6 5 3 2 2 2 2 2 2 2 3 5 6 6 6 7 7 8 8 8 8 8 7 7 8 10 11 12 12 12 12 11 9 6 6 7 10 11 11 12 14 15
4 4 3 1 1 2 2 2 3 3 3 5 5 5 6 6 7 7 8 8 8 8 8 7 7 7 9 10 11 11 11 11 10 9 8 8 9 9 10 11 12 13
3 3 2 1 1 0 1 1 2 3 3 4 4 4 5 6 7 8 8 8 8 8 8 8 7 7 7 8 9 10 11 11 11 11 10 9 8 9 10 10 10 11
3 2 2 2 2 1 1 1 1 2 4 4 4 5 5 7 8 8 8 8 8 8 8 8 8 8 7 7 9 10 11 12 12 12 11 10 9 9 9 9 9 10
3 2 1 1 1 0 1 2 2 3 4 4 5 6 7 8 9 9 8 7 7 8 8 9 9 9 8 7 7 9 10 11 12 12 11 10 10 9 9 9 9 9
2 1 1 1 1 1 2 3 4 4 5 5 6 7 8 9 9 9 9 8 8 9 10 10 11 9 8 8 7 8 9 10 11 12 10 9 9 9 9 10 9 9
Wind_Direction
102 100 101 103 103 100 96 91 84 81 81 81 81 75 66 58 49 40 33 26 19 12 5 2 4 12 22 29 51 68 74 75 74 70 67 63 58 54 50 46 45 44
101 99 102 105 105 99 90 85 78 76 83 88 86 75 63 53 44 37 30 23 17 9 2 3 14 31 43 54 68 77 79 75 72 66 61 57 51 48 45 40 38 37
98 97 100 101 100 94 84 76 70 73 87 93 85 70 59 50 42 35 28 22 16 8 6 15 32 52 68 76 80 81 77 72 67 61 56 53 48 44 42 38 36 34
95 93 94 93 88 82 74 66 60 67 84 90 80 67 57 48 40 33 27 23 19 13 17 31 45 64 83 87 85 82 76 69 64 56 52 51 48 45 44 40 39 36
92 89 87 84 77 69 63 57 55 67 86 88 76 64 54 46 38 33 30 30 28 25 29 40 52 71 84 86 85 80 73 66 59 51 49 50 48 45 44 40 38 36
88 85 82 76 67 61 58 55 59 80 91 83 70 60 52 45 39 36 35 37 37 35 37 45 59 76 82 83 81 74 68 62 55 48 47 48 46 43 40 36 34 33
88 85 79 71 66 63 60 59 66 86 89 76 65 59 52 47 44 40 39 41 40 40 44 52 65 79 81 80 76 69 65 59 53 49 48 46 42 39 35 31 27 23
95 89 79 72 69 65 61 62 70 84 83 69 62 59 54 52 48 43 41 41 40 43 51 61 71 80 79 74 70 66 61 57 51 48 49 48 42 36 31 26 21 16
98 90 79 73 69 65 63 63 67 74 70 63 62 59 56 55 50 44 40 40 43 45 54 69 76 79 76 70 65 62 57 55 51 50 52 48 40 33 28 23 19 16
94 88 78 73 71 67 65 61 59 60 59 59 61 57 55 54 50 42 37 39 47 51 55 70 80 79 74 68 64 59 56 55 54 56 55 46 35 29 25 23 22 19
89 86 79 76 74 69 64 60 56 53 51 54 56 51 49 47 43 40 35 36 47 57 59 67 79 80 73 68 65 59 55 53 53 56 49 38 30 22 19 22 25 24
83 81 78 78 78 72 67 64 58 52 50 53 52 46 43 40 37 36 33 34 44 60 64 66 75 77 71 69 66 60 56 52 50 49 43 34 26 20 18 23 30 31
82 79 78 80 82 76 70 66 60 51 48 49 48 42 40 38 34 32 31 34 43 58 63 63 66 68 67 67 64 60 57 54 51 48 42 36 29 27 30 34 36 38
90 86 83 85 86 75 66 63 58 49 42 41 39 37 38 36 32 30 30 34 43 53 57 56 57 56 56 59 61 59 57 56 55 48 43 39 36 38 43 42 41 41
102 98 92 88 82 72 62 55 45 36 33 32 30 34 38 35 31 30 30 34 41 48 49 48 48 46 43 46 52 53 53 55 54 48 43 40 40 44 47 45 42 40
116 109 101 90 80 73 63 53 40 31 33 31 27 31 35 35 31 28 30 34 38 44 44 42 40 37 32 32 36 39 43 47 50 47 42 39 36 37 38 37 37 37
129 119 111 98 86 77 66 55 42 33 37 39 34 30 30 31 27 23 25 29 33 41 43 41 37 31 24 23 21 17 20 29 40 44 40 36 32 27 23 21 24 28
142 139 130 114 97 87 75 63 45 34 35 35 31 25 20 21 19 15 16 20 24 33 40 41 38 32 26 24 19 12 4 4 20 36 37 34 30 25 20 16 14 17
162 158 149 140 126 107 83 64 44 27 19 13 11 9 5 5 5 3 3 5 10 18 28 36 38 32 28 25 20 15 8 358 358 15 28 27 22 19 18 19 19 17
192 178 163 173 201 212 212 38 11 352 353 354 353 353 352 350 349 347 346 348 351 356 7 22 32 31 26 23 19 14 10 4 355 350 5 13 10 8 12 17 21 20
203 199 197 212 240 245 246 269 291 300 321 332 337 343 343 342 341 339 337 336 335 336 340 354 15 24 22 18 15 11 7 5 1 348 343 351 355 1 11 16 15 14
189 203 213 226 272 264 255 263 268 272 301 319 326 334 335 336 339 338 337 337 334 328 323 326 344 7 16 14 10 6 2 359 358 354 345 345 354 2 12 17 15 14
169 191 189 142 83 22 302 274 258 258 287 311 327 332 332 332 333 333 331 331 334 331 322 317 320 334 356 8 6 360 356 351 350 351 349 350 0 7 12 19 21 19
156 155 131 115 100 69 42 360 295 282 293 305 313 318 327 330 330 331 327 321 325 330 323 318 316 313 325 351 1 357 352 349 349 351 352 354 360 9 18 26 26 21
158 152 145 132 126 359 334 317 305 308 312 310 308 312 319 322 322 325 325 317 314 318 317 316 317 312 308 322 349 357 350 347 351 355 356 360 6 15 26 31 28 20
192 190 193 193 262 284 296 302 303 309 310 307 309 311 313 316 315 315 317 315 309 307 307 306 310 312 304 301 323 349 350 348 353 357 1 9 15 19 26 30 28 19